Home   Weather   Buffalo   Past weeks

Flag for USA Past Weather in Buffalo, New York, USA — Yesterday and Last 2 Weeks

Now
38 °F

Passing clouds.


Feels Like: 31 °F
Forecast: 36 / 41 °F
Wind: 10 mph from East

Location: Greater Buffalo International Airport

Current Time: Dec 4, 2016 at 5:27:25 pm

Latest Report: Dec 4, 2016 at 4:54 pm


Visibility: 10 mi

Pressure: 30.13 "Hg

Humidity: 63%

Dew Point: 26 °F

Location of BuffaloLocation

Past Weather in Buffalo — Graph

°F

Buffalo Temperature Yesterday

Maximum temperature yesterday: 41 °F (at 11:54 am)
Minimum temperature yesterday: 35 °F (at 4:54 am)
Average temperature yesterday: 38 °F

High & Low Weather Summary for the Past Weeks

 TemperatureHumidityPressure
High61 °F (Nov 30, 9:54 am)96% (Nov 25, 4:54 am)30.37 "Hg (Nov 25, 4:54 am)
Low25 °F (Nov 23, 3:54 am)34% (Nov 28, 1:54 pm)29.42 "Hg (Nov 30, 8:54 pm)
Average39 °F73%29.99 "Hg
* Reported Nov 19 3:54 pm — Dec 4 3:54 pm, Buffalo, Weather by CustomWeather, © 2016

Note: Actual official high and low records may vary slightly from our data, if they occured in-between our weather recording intervals... More about our weather records

Advertising

Buffalo Weather History for the Previous 24 Hours

Scroll right to see more
 ConditionsComfort  
Time TempWeatherWind HumidityBarometerVisibility
3:54 pm
Sun, Dec 4
39 °FPartly sunny.9 mph62%30.14 "Hg10 mi
2:54 pm40 °FPartly sunny.6 mph60%30.18 "Hg10 mi
1:54 pm40 °FPartly sunny.7 mph60%30.19 "Hg10 mi
12:54 pm40 °FBroken clouds.9 mph65%30.20 "Hg10 mi
11:54 am38 °FPartly sunny.7 mph70%30.24 "Hg10 mi
10:54 am37 °FMore clouds than sun.3 mph76%30.28 "Hg10 mi
9:54 am37 °FPartly sunny.6 mph79%30.28 "Hg10 mi
8:54 am36 °FPartly sunny.5 mph82%30.27 "Hg10 mi
7:54 am36 °FPartly sunny.3 mph82%30.26 "Hg10 mi
6:54 am36 °FPassing clouds.3 mph82%30.25 "Hg10 mi
5:54 am36 °FPassing clouds.No wind82%30.25 "Hg10 mi
4:54 am36 °FOvercast.5 mph82%30.26 "Hg10 mi
3:54 am37 °FMostly cloudy.5 mph79%30.27 "Hg10 mi
2:54 am37 °FMostly cloudy.3 mph79%30.27 "Hg10 mi
1:54 am37 °FOvercast.5 mph76%30.25 "Hg10 mi
12:54 am37 °FMostly cloudy.6 mph76%30.26 "Hg10 mi
11:54 pm
Sat, Dec 3
37 °FOvercast.7 mph76%30.26 "Hg10 mi
10:54 pm37 °FOvercast.6 mph79%30.25 "Hg10 mi
9:54 pm38 °FMostly cloudy.8 mph73%30.24 "Hg10 mi
8:54 pm38 °FOvercast.7 mph70%30.23 "Hg10 mi
7:54 pm38 °FMostly cloudy.7 mph68%30.24 "Hg10 mi
6:54 pm39 °FOvercast.8 mph62%30.24 "Hg10 mi
5:54 pm39 °FOvercast.9 mph60%30.24 "Hg10 mi
Weather by CustomWeather, © 2016

See weather overviewHow to use our weather pages